Location: A�t Bou Chrif
(32.7193°N, 5.2385°W)
Time: 00:39:44
(UTC+00:00)

Cosmos 676 Rocket - Pass Details

Date: 08 August 2020
Orbit: 754 x 784 km, 74.0° (Epoch: 18 September)

Event Time Altitude Azimuth Distance (km) Brightness Sun altitude
Exits shadow 21:13:57 57° 149° (SSE) 913 4.0 -23.1°
Maximum altitude 21:14:45 66° 104° (ESE) 851 3.9 -23.3°
Drops below altitude 10° 21:20:01 10° 23° (NNE) 2,342 6.7 -24.1°
Sets 21:22:26 0° 21° (NNE) 3,275 7.5 -24.5°
